Location: Unspecified
(0.0000°N, 0.0000°E)
Time: 20:30:39
(UTC+00:00)

CZ-3C DEB - Pass Details

Date: 08 March 2026
Orbit: 440 x 28021 km, 21.3° (Epoch: 10 April)

Event Time Altitude Azimuth Distance (km) Brightness Sun altitude
Rises 13:02:01 0° 272° (W) 5,362 ? 76.3°
Reaches altitude 10° 13:04:12 10° 277° (W) 5,029 ? 75.8°
Maximum altitude 18:46:04 58° 66° (ENE) 23,514 ? -8.8°
Enters shadow 20:11:30 32° 96° (E) 11,970 ? -30.1°
